www.pogodaiklimat.ru

Погода и климат >> Архив погоды >> Молдова >> Кишинев


АРХИВ ПОГОДЫ в Кишиневе

Время (UTC), дата Ветер
(напр.,м/с)
 
Видим.   Явления Облачность Т
(С)
Тd
(С)
f
(%)
Тe
(С)
Тes
(С)
Комфортность P
(гПа)
Po
(гПа)
Тmin
(С)
Tmax
(С)
R
(мм)
R24
(мм)
S
(см)
06 22.04 З 3 50 км 9/0
[Ac trans]
+4.1 -2.3 63 +1 +3 холодно 1016.2 995.2 +2.8 53
09 22.04 З 4 50 км 10/4 600 м
[Sc Ac trans]
+7.3 -2.7 49 +4 +7 холодно 1016.1 995.4
12 22.04 ЮЗ 5 50 км 8/0
[Ac trans]
+9.1 -2.2 45 +6 +10 очень
холодно
1014.1 993.5
15 22.04 ЮЗ 4 50 км 8/0
[Ac trans]
+7.3 -1.1 55 +4 +5 очень
холодно
1012.7 992.0
18 22.04 ЮЗ 3 20 км 10/3 600 м
[Sc Ac trans]
+5.6 -0.9 63 +3 +3 очень
холодно
1012.2 991.4 +9.8
21 22.04 штиль 0 10 км {дождь} 10/10 600 м
[Sc]
+4.4 -1.0 68 +4 +4 холодно 1011.9 991.0
00 23.04 штиль 0 10 км {дождь} 10/10 600 м
[Cb calv]
+3.9 +0.1 76 +3 +3 прохладно 1010.4 989.5
03 23.04 штиль 0 10 км 10/10 600 м
[Sc]
+3.9 +0.9 81 +3 +3 прохладно 1009.5 988.7
06 23.04 С 2 20 км 10/8 600 м
[Sc Ac trans]
+6.3 +1.8 73 +4 +5 прохладно 1009.8 989.1 +3.3 0.0 33
09 23.04 С 4 20 км 10/10 600 м
[Sc]
+5.5 +1.2 74 +2 +2 очень
холодно
1010.4 989.7
12 23.04 С 5 20 км в посл. час дождь 10/10 600 м
[Sc]
+4.3 +0.6 77 -0 -0 очень
холодно
1011.1 990.3
15 23.04 З 4 20 км 8/3 600 м
[Cu hum Ac trans Ci fib]
+7.3 -0.2 59 +4 +5 очень
холодно
1011.1 990.5
18 23.04 СЗ 4 20 км 6/0
[Ac lent Ci]
+5.4 -0.6 65 +2 +2 очень
холодно
1012.6 991.8 +7.5 0.0
21 23.04 СЗ 5 20 км 3/0
[Ci fib]
+5.1 -1.6 62 +1 +1 очень
холодно
1014.1 993.2
00 24.04 СЗ 7 20 км ясно +3.7 -0.5 74 -2 -2 очень
холодно
1015.0 994.0
03 24.04 СЗ 7 20 км 3/0
[Ac lent Ci fib]
+2.2 -1.4 77 -4 -4 очень
холодно
1016.0 994.9
06 24.04 СЗ 5 20 км ясно +4.1 -1.5 67 -1 +2 очень
холодно
1017.8 996.8 +2.1 14
09 24.04 СЗ 6 20 км 8/8 600 м
[Cu med, cong]
+7.2 -2.8 49 +3 +5 очень
холодно
1018.4 997.6
12 24.04 З 4 20 км в посл. час ливневой дождь 6/5 600 м
[Cb calv Ci fib]
+8.5 -1.9 48 +6 +10 очень
холодно
1018.4 997.7
15 24.04 С 5 20 км в посл. час ливневой дождь 9/9 600 м
[Cb calv]
+5.7 +1.1 72 +1 +2 очень
холодно
1019.4 998.5
18 24.04 штиль 0 20 км {ливн. осадки} 8/5 600 м
[Cb calv Ac trans Ci fib]
+4.5 +1.0 78 +4 +4 очень
холодно
1020.9 999.9 +9.2 0.3
21 24.04 ЮЗ 1 20 км 10/8 600 м
[Cb calv Ac trans]
+4.4 +0.9 78 +3 +3 холодно 1021.8 1000.7
00 25.04 Ю 1 20 км 10/6 600 м
[Cb calv Ac trans]
+3.4 +0.5 81 +2 +2 холодно 1021.6 1000.5
03 25.04 штиль 0 20 км 3/0
[Ci fib]
+2.1 -0.3 84 +1 +1 холодно 1021.7 1000.5
06 25.04 Ю 2 10 км ясно +5.2 +0.8 73 +3 +8 холодно 1021.9 1000.9 +2.1 <0.5
09 25.04 Ю 5 20 км 5/0
[Ci fib]
+12.6 0.0 42 +11 +18 по сезону 1020.8 1000.4
12 25.04 ЮЗ 7
{12}
20 км 8/1 600 м
[Cu hum Ci fib]
+15.0 +0.1 36 +13 +16 по сезону 1018.8 998.6
15 25.04 ЮЗ 8
{12}
20 км 4/0
[Ci fib]
+15.8 +0.4 35 +14 +15 по сезону 1017.3 997.2
18 25.04 Ю 5 20 км 3/0
[Ci fib]
+11.4 +5.3 66 +9 +9 прохладно 1018.0 997.5 +16.2
21 25.04 Ю 7 20 км 4/0
[Ci fib]
+7.6 +1.2 64 +3 +3 холодно 1019.0 998.2
00 26.04 Ю 5 20 км ясно +6.6 +0.7 66 +3 +3 прохладно 1019.0 998.2
03 26.04 Ю 3 20 км ясно +5.0 +1.5 78 +2 +2 холодно 1019.5 998.5
06 26.04 Ю 4 50 км ясно +9.3 +3.9 69 +7 +10 по сезону 1019.6 999.0 +4.8
09 26.04 Ю 6 50 км 5/0
[Ci fib]
+15.6 +4.6 48 +14 +20 по сезону 1019.3 999.1
12 26.04 Ю 8 50 км 8/0
[Ci fib]
+17.7 +6.6 48 +17 +19 тепло 1017.9 997.9
15 26.04 Ю 7 50 км 8/0
[Cc]
+15.6 +3.1 43 +14 +15 по сезону 1017.5 997.3
18 26.04 ЮВ 3 20 км 10/0
[Ac trans Ci fib]
+10.1 +4.9 70 +8 +8 прохладно 1017.9 997.4 +18.7
21 26.04 ЮВ 3 20 км ясно +6.8 +5.1 89 +4 +4 холодно 1018.8 998.0
00 27.04 Ю 3 20 км ясно +5.5 +2.7 82 +2 +2 холодно 1018.5 997.6
03 27.04 ЮВ 2 20 км 5/0
[Ci]
+4.4 +3.1 91 +2 +2 холодно 1018.3 997.3
06 27.04 Ю 3 20 км 10/3 600 м
[Cu hum Ac lent Ci fib]
+8.6 +5.3 80 +6 +8 прохладно 1018.7 998.0 +4.3
09 27.04 Ю 5 20 км 10/0
[Ac trans Ci fib]
+17.1 +6.6 50 +16 +22 тепло 1017.4 997.4
12 27.04 Ю 6 20 км 10/0
[Cc]
+20.3 +8.0 45 +21 +25 комфорт 1016.3 996.5
15 27.04 Ю 5 20 км 8/0
[Ci sp]
+19.9 +6.3 41 +21 +22 комфорт 1015.7 995.9
18 27.04 ЮВ 5 20 км 8/0
[Ci sp]
+13.3 +4.5 55 +12 +12 по сезону 1016.6 996.3 +20.9
21 27.04 Ю 3 20 км 5/0
[Ci]
+8.8 +5.0 77 +6 +6 прохладно 1017.3 996.7
00 28.04 ЮВ 2 20 км ясно +6.5 +4.8 89 +4 +4 прохладно 1017.0 996.2
03 28.04 ЮВ 3 20 км 6/0
[Ac lent Ci sp]
+6.0 +3.7 85 +3 +3 холодно 1016.3 995.5
06 28.04 Ю 3 20 км 5/0
[Cc]
+9.7 +5.1 73 +8 +12 по сезону 1016.5 996.0 +5.9
09 28.04 Ю 4 20 км 6/0
[Cc]
+18.6 +6.4 45 +19 +28 тепло 1015.2 995.3
12 28.04 Ю 7 20 км 8/0
[Ac trans Ci fib]
+22.0 +7.0 38 +23 +25 комфорт 1013.6 994.0
15 28.04 ЮВ 6
{12}
20 км 9/0
[Ac trans Ci fib]
+20.2 +4.7 36 +21 +21 комфорт 1012.9 993.2
18 28.04 ЮВ 4 20 км 9/0
[Ac trans Ci fib]
+15.1 +4.8 50 +14 +14 по сезону 1013.1 993.0 +23.1
21 28.04 ЮВ 3 20 км 4/0
[Ac trans Ci fib]
+11.7 +3.7 58 +10 +10 по сезону 1013.3 993.0
00 29.04 Ю 2 20 км 3/0
[Ci fib]
+9.7 +1.4 56 +9 +9 по сезону 1013.2 992.7
03 29.04 ЮВ 2 20 км 3/0
[Ci fib]
+9.1 +2.0 61 +8 +8 по сезону 1012.6 992.1

 

Местоположение метеостанции Кишинев (Молдова): широта 47.02 долгота 28.98 высота над уровнем моря 173 м.

В архиве по умолчанию представлена погода в Кишиневе за последнюю неделю. Архивные данные за месяц целиком и за предыдущие месяцы, начиная с января 2011 года, Вы можете получить, выбрав интересующий диапазон дат из раскрывающегося списка и нажав кнопку "Ввод!".

Внимание! Время в таблицах - всемирное. Для получения местного времени необходимо прибавить поправку, которая в Кишиневе равна 2 ч.

Смотрите также архив погоды в соседних городах и на ближайших метеорологических станциях:

Погода в Дубоссарах (Молдова) (29 км)
Погода в Тирасполе (Молдова) (49 км)
Погода в Бравичах (Молдова) (57 км)
Погода в Штефан Водэ (Молдова) (67 км)
Погода в Корнестах (Молдова) (76 км)
Погода в Затишье (Одесская область, Украина) (76 км)
Погода в Леове (Молдова) (80 км)
Погода в Заставе (Одесская область, Украина) (81 км)
Погода в Рыбнице (Молдова) (83 км)
Погода в Комрате (Молдова) (84 км)

Пояснения к столбцам:

Ветер - указаны скорость ветра в м/с - средняя за 10 мин, порывы в срок и между сроками (в фигурных скобках) и направление, откуда дует ветер: С - северный, СВ - северо-восточный, В - восточный, ЮВ - юго-восточный, Ю - южный, ЮЗ - юго-западный, З - западный, СЗ - северо-западный.
Видимость - горизонтальная дальность видимости в метрах или километрах. При видимости от 1 до 10 км при отсутствии осадков обычно наблюдается дымка, при ухудшении видимости до 1 км и менее - туман. В сухую погоду видимость может ухудшаться дымом, пылью или мглою.
Явления - указаны атмосферные явления, наблюдавшиеся в срок или в последний час перед сроком; фигурными скобками обозначены явления, наблюдавшиеся между сроками (за 1-3 часа до срока); квадратными скобками обозначены град или гололедные отложения с указанием их диаметра в мм.
Облачность - указаны через наклонную черту общая и нижняя облачность в баллах и высота нижней границы облаков в метрах; квадратными скобками обозначены формы облаков: Ci - перистые, Cs - перисто-слоистые, Cc - перисто-кучевые, Ac - высококучевые, As - высокослоистые, Sc - слоисто-кучевые, Ns - слоисто-дождевые, Cu - кучевые, Cb - кучево-дождевые. Подробнее классификацию облаков см. в Атласе облаков (PDF).
T - Температура воздуха - температура, измеренная на высоте 2 м над землей.
Td - Температура точки росы - температура, при понижении до которой содержащийся в воздухе водяной пар достигнет насыщения.
f - Относительная влажность воздуха - влажноcть воздуха, измеренная на высоте 2 м над землей.
Te - Эффективная температура - температура, которую ощущает одетый по сезону человек в тени. Характеристика душности погоды. При расчете учитывается влияние влажности воздуха и скорости ветра на теплоощущения человека.
Tes - Эффективная температура на солнце - температура, которую ощущает человек, с поправкой на солнечный нагрев. Характеристика знойности погоды. Зависит от высоты солнца над горизонтом, облачности и скорости ветра. Ночью, в пасмурную погоду, а также при ветре 12 м/с и более поправка равна нулю.
P - Атмосферное давление - приведенное к уровню моря атмосферное давление.
Po - Атмосферное давление - измеренное на уровне метеостанции атмосферное давление.
Tmin - Минимальная температура - минимум температуры воздуха на высоте 2 м над землей.
Tmax - Максимальная температура - максимум температуры воздуха на высоте 2 м над землей.
R - Количество осадков - Количество выпавших осадков за период времени, мм. При наведении курсора мыши на число - период времени, за который выпало указанное количество осадков.
R24 - Количество осадков - Количество выпавших осадков за 24 часа, мм.
S - Снежный покров - Высота снежного покрова, см. При наведении курсора мыши на число - состояние снежного покрова и степень покрытия местности в баллах.